Content
SEND FEEDBACK

Daily
Averages
Monthly
Summary
United States of America

STATEN ISLAND, NEW YORK


Home > North America > United States > New York
Elevation: 152 feet     Latitude: 40 35N     Longitude: 074 09W

WEATHER
 
SELECT A DAY
Number of Records: 193,165;   Date Range: 1/1/95 - 11/21/14
 
SHARE

PRINT THIS DATA

[ ← Previous Day ]
WEATHER ALMANAC - SEPTEMBER 1, 2013
[ Next Day → ]
[ °C ]   °F
Weather ElementAverageHighLow
Temperature78.2 °F84 °F (2:51 pm)73.4 °F (5:26 am)
Dewpoint71.5 °F73.4 °F (10:19 am)68 °F (8:51 pm)
Humidity80 %94 % (5:26 am)69 % (1:51 pm)
Barometer29.83 in29.86 in (9:51 am)29.80 in (4:51 pm)
Wind Speed6.7 mph11.5 mph (4:51 am)
Weather ElementAverage
Visibility9.9 mi
Wind DirectionSSE (171.3 °)

Weather ElementTotal
Precipitation---
Cooling Degree Days13.7 (Base 65)
Growing Degree Days28.7 (Base 50)
Averaged from 31 records on September 1, 2013
WEATHER CONDITIONS BREAKOUT
WIND DIRECTION BREAKOUT
WEATHER BY HOUR - SEPTEMBER 1, 2013
[ °C ]   °F
Local TimeTemperatureDewpointHumidityBarometerVisibilityWind DirectionWind SpeedGust SpeedPrecipitationEventsConditions
1:51 AM78.1 °F70.0 °F76 %29.82 in10.0 miSW (220°)10.4 mphMostly Cloudy
2:51 AM75.9 °F71.1 °F85 %29.82 in10.0 miSSW (200°)9.2 mphMostly Cloudy
3:51 AM75.9 °F71.1 °F85 %29.81 in10.0 miSouth (190°)6.9 mphPartly Cloudy
4:12 AM75.2 °F71.6 °F89 %29.82 in10.0 miSouth (180°)10.4 mphThunderstormThunderstorm
4:51 AM73.9 °F72.0 °F93 %29.81 in10.0 miSSW (210°)11.5 mphThunderstormThunderstorm
5:26 AM73.4 °F71.6 °F94 %29.82 in10.0 miSouth (190°)9.2 mphMostly Cloudy
5:51 AM73.9 °F71.1 °F91 %29.83 in10.0 miSouth (170°)3.5 mphMostly Cloudy
6:51 AM73.9 °F71.1 °F91 %29.85 in10.0 miSW (220°)3.5 mphOvercast
7:51 AM75.0 °F72.0 °F90 %29.85 in10.0 miSouth (170°)5.8 mphOvercast
8:47 AM77.0 °F71.6 °F83 %29.85 in10.0 miSouth (190°)5.8 mphOvercast
8:51 AM77.0 °F72.0 °F84 %29.85 in10.0 miSSE (150°)4.6 mphOvercast
9:51 AM77.0 °F72.0 °F84 %29.86 in10.0 miSSW (200°)8.1 mphOvercast
10:19 AM77.0 °F73.4 °F89 %29.86 in10.0 miSouth (190°)6.9 mphOvercast
10:41 AM78.8 °F71.6 °F78 %29.86 in10.0 miSSW (210°)6.9 mph0.00 inRainLight Rain
10:51 AM78.1 °F72.0 °F81 %29.86 in9.0 miSouth (180°)5.8 mph0.00 inRainLight Rain
11:16 AM78.8 °F71.6 °F78 %29.85 in9.0 miSouth (170°)4.6 mph0.00 inMostly Cloudy
11:51 AM81.0 °F72.0 °F74 %29.85 in10.0 miSE (140°)3.5 mph0.00 inMostly Cloudy
12:29 PM80.6 °F71.6 °F74 %29.84 in10.0 miSSE (160°)6.9 mphMostly Cloudy
12:51 PM82.0 °F73.0 °F74 %29.84 in10.0 miSouth (180°)9.2 mphMostly Cloudy
1:51 PM82.9 °F72.0 °F69 %29.83 in10.0 miSSW (210°)5.8 mphOvercast
2:04 PM82.4 °F73.4 °F74 %29.82 in10.0 miSouth (190°)5.8 mphOvercast
2:51 PM84.0 °F73.0 °F69 %29.81 in10.0 miSSE (160°)5.8 mphMostly Cloudy
3:51 PM82.9 °F72.0 °F69 %29.81 in10.0 miSE (130°)9.2 mphMostly Cloudy
4:51 PM82.0 °F72.0 °F71 %29.80 in10.0 miESE (110°)9.2 mphMostly Cloudy
5:51 PM81.0 °F72.0 °F74 %29.80 in10.0 miESE (110°)9.2 mphMostly Cloudy
6:51 PM80.1 °F71.1 °F74 %29.81 in10.0 miSouth (170°)8.1 mphOvercast
7:51 PM79.0 °F69.1 °F72 %29.80 in10.0 miSSE (150°)4.6 mph0.00 inOvercast
8:51 PM77.0 °F68.0 °F74 %29.82 in10.0 miSSW (200°)4.6 mphOvercast
9:51 PM78.1 °F68.0 °F71 %29.83 in10.0 miSSE (150°)3.5 mphOvercast
10:51 PM77.0 °F71.1 °F82 %29.83 in10.0 miESE (110°)3.5 mphOvercast
11:51 PM75.9 °F72.0 °F87 %29.81 in9.0 miEast (100°)4.6 mphOvercast
Hourly data recorded from KEWR, located miles away from Staten Island, New York







STORIES FROM OUR PARTNERS